Flag for Canada Weather past 2 weeks in Saanich, British Columbia, Canada

Now
66 °F

Overcast.


Feels Like: 66 °F
Forecast: 58 / 74 °F
Wind: 5 mph from East

Location: Victoria Int. Airportb. C.

Current Time: Jul 6, 2015 at 7:58:10 PM

Latest Report: Jul 6, 2015 at 7:00 PM


Visibility: 15 mi

Pressure: 29.93 "Hg

Humidity: 68%

Dew point: 55 °F

Location of SaanichLocation

Historic Weather in Saanich — Graph

°F

Saanich temperature yesterday

Maximum temperature yesterday: 88 °F (at 4:00 PM)
Minimum temperature yesterday: 59 °F (at 12:00 AM)
Average temperature yesterday: 71 °F

Past Weeks' High & Low Weather Summary

 TemperatureHumidityPressure
High88 °F (Jul 5, 4:00 PM)94% (Jun 25, 5:00 AM)30.16 "Hg (Jun 25, 5:00 AM)
Low52 °F (Jun 22, 6:00 AM)21% (Jul 5, 4:00 PM)29.76 "Hg (Jul 4, 7:00 PM)
Average68 °F62%29.99 "Hg
* Reported Jun 21 6:00 PM — Jul 6 6:00 PM, Saanich, Weather by CustomWeather, © 2015

Note: Actual official high and low records may vary slightly from our data, if they occured in-between our weather recording intervals... More about our weather records

Advertising

Saanich weather history for previous 24 hours

 ConditionsComfort  
Time TempWeatherWind HumidityBarometerVisibility
6:00 PM
Mon, Jul 6
68 °FHaze.3 mph64%29.94 "Hg15 mi
5:00 PM68 °FHaze.7 mph60%29.96 "Hg15 mi
4:00 PM70 °FOvercast.7 mph57%29.96 "Hg15 mi
3:00 PM68 °FOvercast.6 mph60%29.98 "Hg30 mi
2:00 PM66 °FOvercast.8 mph64%29.98 "Hg15 mi
1:00 PM66 °FHaze.6 mph64%29.99 "Hg12 mi
12:00 PM64 °FOvercast.7 mph68%29.99 "Hg12 mi
11:00 AM64 °FLight fog.6 mph68%29.98 "Hg8 mi
10:00 AM63 °FLight fog.6 mph73%29.98 "Hg8 mi
9:00 AM61 °FLight fog.No wind77%29.97 "Hg8 mi
8:00 AM57 °FLight fog.2 mph88%29.96 "Hg8 mi
7:00 AM55 °FPartly sunny.3 mph88%29.95 "Hg8 mi
6:00 AM55 °FLight fog.5 mph88%29.93 "Hg8 mi
5:00 AM55 °FLight fog.2 mph88%29.91 "Hg5 mi
4:00 AM63 °FOvercast.6 mph64%29.89 "Hg5 mi
3:00 AM57 °FOvercast.No wind82%29.89 "Hg12 mi
2:00 AM63 °FOvercast.6 mph68%29.87 "Hg12 mi
1:00 AM68 °FOvercast.8 mph53%29.86 "Hg8 mi
12:00 AM66 °FPassing clouds.7 mph60%29.86 "Hg12 mi
11:00 PM
Sun, Jul 5
64 °FOvercast.3 mph64%29.85 "Hg12 mi
10:00 PM64 °FOvercast.3 mph73%29.84 "Hg12 mi
9:00 PM70 °FHaze.2 mph50%29.83 "Hg12 mi
8:00 PM72 °FOvercast.No wind44%29.83 "Hg12 mi
7:00 PM75 °FMore clouds than sun.6 mph41%29.82 "Hg15 mi
Weather by CustomWeather, © 2015

See weather overviewHow to use our weather pages